| time (UTC) | temp F | wind direction | speed knots | gust knots | rain 1hr in | rain 24hr in | rain mn in | humidity % | barometer mb |
| 20260508205306 | 94 | 106 | 2.6 | 5.2 | 0.00 | 0.00 | 0.00 | 52 | 1011.5 |
| 20260508204805 | 94 | 104 | 2.6 | 5.2 | 0.00 | 0.00 | 0.00 | 52 | 1011.6 |
| 20260508204235 | 93 | 97 | 1.7 | 5.2 | 0.00 | 0.00 | 0.00 | 54 | 1011.6 |
| 20260508203735 | 93 | 106 | 0.9 | 5.2 | 0.00 | 0.00 | 0.00 | 53 | 1011.7 |
| 20260508203205 | 93 | 121 | 0.9 | 2.6 | 0.00 | 0.00 | 0.00 | 53 | 1011.9 |
| 20260508202705 | 93 | 118 | 0.9 | 2.6 | 0.00 | 0.00 | 0.00 | 52 | 1012.0 |
| 20260508202135 | 94 | 121 | 0.9 | 2.6 | 0.00 | 0.00 | 0.00 | 52 | 1012.0 |
| 20260508201635 | 94 | 124 | 0.9 | 3.5 | 0.00 | 0.00 | 0.00 | 51 | 1012.0 |
| 20260508200535 | 95 | 97 | 2.6 | 5.2 | 0.00 | 0.00 | 0.00 | 52 | 1012.1 |
| 20260508200005 | 96 | 99 | 2.6 | 6.1 | 0.00 | 0.00 | 0.00 | 50 | 1012.2 |
| 20260508195622 | 96 | 115 | 2.6 | 6.1 | 0.00 | 0.00 | 0.00 | 54 | 1012.2 |
| 20260508195505 | 96 | 115 | 2.6 | 6.1 | 0.00 | 0.00 | 0.00 | 54 | 1012.2 |
| 20260508195005 | 96 | 112 | 2.6 | 6.1 | 0.00 | 0.00 | 0.00 | 51 | 1012.2 |
| 20260508194629 | 96 | 98 | 2.6 | 7.8 | 0.00 | 0.00 | 0.00 | 53 | 1012.3 |
| 20260508194505 | 96 | 98 | 2.6 | 7.8 | 0.00 | 0.00 | 0.00 | 53 | 1012.3 |
| 20260508193505 | 96 | 103 | 5.2 | 10.4 | 0.00 | 0.00 | 0.00 | 52 | 1012.6 |
| 20260508193005 | 96 | 102 | 2.6 | 10.4 | 0.00 | 0.00 | 0.00 | 53 | 1012.6 |
| 20260508192505 | 96 | 103 | 3.5 | 7.0 | 0.00 | 0.00 | 0.00 | 51 | 1012.7 |
| 20260508192005 | 97 | 105 | 3.5 | 7.0 | 0.00 | 0.00 | 0.00 | 52 | 1012.8 |
| 20260508191505 | 97 | 109 | 2.6 | 7.0 | 0.00 | 0.00 | 0.00 | 50 | 1012.9 |
| 20260508185405 | 94 | 55 | 1.7 | 3.5 | 0.00 | 0.00 | 0.00 | 54 | 1013.3 |
| 20260508184835 | 94 | 340 | 1.7 | 4.3 | 0.00 | 0.00 | 0.00 | 53 | 1013.4 |
| 20260508184335 | 94 | 213 | 1.7 | 4.3 | 0.00 | 0.00 | 0.00 | 53 | 1013.5 |
| 20260508183835 | 94 | 165 | 1.7 | 6.1 | 0.00 | 0.00 | 0.00 | 52 | 1013.7 |
| 20260508183305 | 95 | 89 | 1.7 | 6.1 | 0.00 | 0.00 | 0.00 | 54 | 1013.7 |
| 20260508182735 | 94 | 60 | 1.7 | 6.1 | 0.00 | 0.00 | 0.00 | 53 | 1013.7 |
| 20260508182235 | 94 | 308 | 1.7 | 3.5 | 0.00 | 0.00 | 0.00 | 53 | 1013.8 |
| 20260508181705 | 93 | 322 | 1.7 | 3.5 | 0.00 | 0.00 | 0.00 | 53 | 1013.9 |
| 20260508181135 | 93 | 28 | 1.7 | 3.5 | 0.00 | 0.00 | 0.00 | 54 | 1013.9 |
| 20260508180635 | 93 | 82 | 1.7 | 2.6 | 0.00 | 0.00 | 0.00 | 55 | 1014.0 |
| 20260508180105 | 93 | 100 | 1.7 | 5.2 | 0.00 | 0.00 | 0.00 | 58 | 1014.2 |
| 20260508175605 | 91 | 141 | 1.7 | 5.2 | 0.00 | 0.00 | 0.00 | 62 | 1014.2 |
| 20260508175035 | 90 | 256 | 0.9 | 2.6 | 0.00 | 0.00 | 0.00 | 60 | 1014.3 |
| 20260508174505 | 89 | 248 | 0.9 | 2.6 | 0.00 | 0.00 | 0.00 | 60 | 1014.4 |
| 20260508174006 | 90 | 168 | 1.7 | 3.5 | 0.00 | 0.00 | 0.00 | 58 | 1014.3 |
| 20260508173506 | 91 | 103 | 2.6 | 6.1 | 0.00 | 0.00 | 0.00 | 57 | 1014.4 |
| 20260508172505 | 91 | 90 | 2.6 | 7.0 | 0.00 | 0.00 | 0.00 | 57 | 1014.5 |
| 20260508171935 | 92 | 108 | 1.7 | 3.5 | 0.00 | 0.00 | 0.00 | 59 | 1014.6 |
| 20260508171405 | 92 | 114 | 1.7 | 5.2 | 0.00 | 0.00 | 0.00 | 60 | 1014.6 |
| 20260508170835 | 91 | 101 | 2.6 | 5.2 | 0.00 | 0.00 | 0.00 | 58 | 1014.7 |
| 20260508170305 | 91 | 104 | 2.6 | 5.2 | 0.00 | 0.00 | 0.00 | 60 | 1014.7 |
| 20260508165805 | 90 | 129 | 0.9 | 3.5 | 0.00 | 0.00 | 0.00 | 61 | 1014.9 |
| 20260508165307 | 90 | 18 | 0.9 | 3.5 | 0.00 | 0.00 | 0.00 | 61 | 1014.9 |
| 20260508164805 | 90 | 39 | 1.7 | 2.6 | 0.00 | 0.00 | 0.00 | 60 | 1015.0 |
| 20260508164305 | 90 | 33 | 1.7 | 3.5 | 0.00 | 0.00 | 0.00 | 61 | 1015.1 |
| 20260508163735 | 90 | 8 | 1.7 | 3.5 | 0.00 | 0.00 | 0.00 | 63 | 1015.2 |
| 20260508163235 | 89 | 350 | 1.7 | 3.5 | 0.00 | 0.00 | 0.00 | 62 | 1015.4 |
| 20260508162735 | 89 | 20 | 1.7 | 3.5 | 0.00 | 0.00 | 0.00 | 62 | 1015.4 |
| 20260508162435 | 89 | 357 | 1.7 | 3.5 | 0.00 | 0.00 | 0.00 | 62 | 1015.5 |
| 20260508162235 | 89 | 357 | 1.7 | 3.5 | 0.00 | 0.00 | 0.00 | 62 | 1015.5 |
| 20260508161735 | 89 | 338 | 1.7 | 3.5 | 0.00 | 0.00 | 0.00 | 63 | 1015.5 |
| 20260508160705 | 89 | 349 | 0.9 | 2.6 | 0.00 | 0.00 | 0.00 | 64 | 1015.7 |
| 20260508155135 | 88 | 351 | 1.7 | 2.6 | 0.00 | 0.00 | 0.00 | 66 | 1015.8 |
| 20260508154753 | 88 | 314 | 1.7 | 3.5 | 0.00 | 0.00 | 0.00 | 65 | 1015.9 |
| 20260508154635 | 88 | 314 | 1.7 | 3.5 | 0.00 | 0.00 | 0.00 | 65 | 1015.9 |
| 20260508154135 | 88 | 360 | 1.7 | 3.5 | 0.00 | 0.00 | 0.00 | 66 | 1016.0 |
| 20260508153635 | 88 | 344 | 1.7 | 4.3 | 0.00 | 0.00 | 0.00 | 68 | 1016.1 |
| 20260508153105 | 87 | 325 | 1.7 | 4.3 | 0.00 | 0.00 | 0.00 | 69 | 1016.1 |
| 20260508152035 | 87 | 331 | 1.7 | 2.6 | 0.00 | 0.00 | 0.00 | 69 | 1016.3 |
| 20260508145035 | 87 | 334 | 2.6 | 5.2 | 0.00 | 0.00 | 0.00 | 72 | 1016.4 |
| 20260508144505 | 86 | 360 | 1.7 | 4.3 | 0.00 | 0.00 | 0.00 | 73 | 1016.4 |
| 20260508144005 | 85 | 16 | 1.7 | 3.5 | 0.00 | 0.00 | 0.00 | 76 | 1016.4 |
| 20260508142935 | 83 | 330 | 1.7 | 3.5 | 0.00 | 0.00 | 0.00 | 79 | 1016.5 |
| 20260508141905 | 83 | 323 | 1.7 | 3.5 | 0.00 | 0.00 | 0.00 | 79 | 1016.3 |
| 20260508140835 | 84 | 5 | 1.7 | 3.5 | 0.00 | 0.00 | 0.00 | 81 | 1016.4 |
| 20260508140335 | 83 | 357 | 1.7 | 3.5 | 0.00 | 0.00 | 0.00 | 81 | 1016.4 |
| 20260508135835 | 82 | 353 | 1.7 | 3.5 | 0.00 | 0.00 | 0.00 | 83 | 1016.4 |
| 20260508135306 | 82 | 342 | 1.7 | 3.5 | 0.00 | 0.00 | 0.00 | 84 | 1016.4 |
| 20260508134805 | 81 | 324 | 1.7 | 3.5 | 0.00 | 0.00 | 0.00 | 84 | 1016.4 |
| 20260508134305 | 80 | 329 | 1.7 | 3.5 | 0.00 | 0.00 | 0.00 | 86 | 1016.4 |
| 20260508133805 | 80 | 319 | 1.7 | 3.5 | 0.00 | 0.00 | 0.00 | 86 | 1016.3 |
| 20260508133235 | 80 | 318 | 1.7 | 3.5 | 0.00 | 0.00 | 0.00 | 86 | 1016.3 |
| 20260508132735 | 80 | 317 | 1.7 | 3.5 | 0.00 | 0.00 | 0.00 | 87 | 1016.3 |
| 20260508132235 | 80 | 317 | 1.7 | 3.5 | 0.00 | 0.00 | 0.00 | 88 | 1016.3 |
| 20260508131735 | 79 | 329 | 1.7 | 2.6 | 0.00 | 0.00 | 0.00 | 89 | 1016.4 |
| 20260508131205 | 79 | 321 | 1.7 | 2.6 | 0.00 | 0.00 | 0.00 | 89 | 1016.2 |
| 20260508130205 | 79 | 336 | 1.7 | 3.5 | 0.00 | 0.00 | 0.00 | 89 | 1016.3 |
| 20260508125705 | 79 | 331 | 1.7 | 3.5 | 0.00 | 0.00 | 0.00 | 90 | 1016.2 |
| 20260508125136 | 78 | 300 | 1.7 | 5.2 | 0.00 | 0.00 | 0.00 | 90 | 1016.2 |
| 20260508124635 | 78 | 290 | 1.7 | 5.2 | 0.00 | 0.00 | 0.00 | 91 | 1016.2 |
| 20260508124105 | 78 | 285 | 1.7 | 3.5 | 0.00 | 0.00 | 0.00 | 91 | 1016.2 |
| 20260508123715 | 77 | 285 | 1.7 | 3.5 | 0.00 | 0.00 | 0.00 | 92 | 1016.1 |
| 20260508123606 | 77 | 285 | 1.7 | 3.5 | 0.00 | 0.00 | 0.00 | 92 | 1016.1 |
| 20260508120905 | 76 | 292 | 0.9 | 3.5 | 0.00 | 0.00 | 0.00 | 94 | 1015.8 |
| 20260508120335 | 76 | 290 | 0.9 | 3.5 | 0.00 | 0.00 | 0.00 | 94 | 1015.7 |
| 20260508115815 | 75 | 287 | 0.9 | 1.7 | 0.00 | 0.00 | 0.00 | 95 | 1015.6 |
| 20260508115805 | 75 | 287 | 0.9 | 3.5 | 0.00 | 0.00 | 0.00 | 94 | 1015.7 |
| 20260508115235 | 75 | 287 | 0.9 | 1.7 | 0.00 | 0.00 | 0.00 | 95 | 1015.6 |
| 20260508114205 | 75 | 299 | 0.9 | 2.6 | 0.00 | 0.00 | 0.00 | 95 | 1015.3 |
| 20260508112635 | 74 | 299 | 0.9 | 1.7 | 0.00 | 0.00 | 0.00 | 96 | 1015.3 |
| 20260508112338 | 74 | 294 | 0.9 | 1.7 | 0.00 | 0.00 | 0.00 | 96 | 1015.1 |
| 20260508112135 | 74 | 294 | 0.9 | 1.7 | 0.00 | 0.00 | 0.00 | 96 | 1015.1 |
| 20260508111605 | 73 | 297 | 0.9 | 1.7 | 0.00 | 0.00 | 0.00 | 96 | 1015.1 |
| 20260508110505 | 73 | 294 | 0.9 | 1.7 | 0.00 | 0.00 | 0.00 | 97 | 1015.1 |
| 20260508105435 | 73 | 279 | 0.9 | 1.7 | 0.00 | 0.00 | 0.00 | 98 | 1014.7 |
| 20260508104905 | 72 | 282 | 0.9 | 1.7 | 0.00 | 0.00 | 0.00 | 98 | 1014.7 |
| 20260508104405 | 72 | 286 | 0.9 | 1.7 | 0.00 | 0.00 | 0.00 | 98 | 1014.6 |
| 20260508103904 | 72 | 287 | 0.9 | 1.7 | 0.00 | 0.00 | 0.00 | 98 | 1014.6 |
| 20260508102805 | 72 | 279 | 0.9 | 0.9 | 0.00 | 0.00 | 0.00 | 98 | 1014.5 |
| 20260508102306 | 72 | 279 | 0.9 | 0.9 | 0.00 | 0.00 | 0.00 | 98 | 1014.5 |
| 20260508101735 | 72 | 279 | 0.9 | 0.9 | 0.00 | 0.00 | 0.00 | 98 | 1014.5 |
| 20260508101235 | 71 | 279 | 0.9 | 0.9 | 0.00 | 0.00 | 0.00 | 98 | 1014.4 |
| 20260508100735 | 71 | 279 | 0.9 | 0.9 | 0.00 | 0.00 | 0.00 | 98 | 1014.3 |
| 20260508094705 | 71 | 279 | 0.9 | 1.7 | 0.00 | 0.00 | 0.00 | 98 | 1014.0 |
| 20260508094204 | 70 | 279 | 0.9 | 0.9 | 0.00 | 0.00 | 0.00 | 98 | 1013.9 |
| 20260508093134 | 70 | 279 | 0.9 | 0.9 | 0.00 | 0.00 | 0.00 | 97 | 1013.8 |
| 20260508092605 | 70 | 279 | 0.9 | 0.9 | 0.00 | 0.00 | 0.00 | 97 | 1013.8 |
| 20260508085505 | 70 | 0 | 0.0 | 0.9 | 0.00 | 0.00 | 0.00 | 96 | 1013.6 |
| 20260508085004 | 71 | 279 | 0.0 | 0.9 | 0.00 | 0.00 | 0.00 | 95 | 1013.7 |
| 20260508084434 | 71 | 279 | 0.0 | 0.9 | 0.00 | 0.00 | 0.00 | 95 | 1013.6 |
| 20260508083904 | 71 | 0 | 0.0 | 0.0 | 0.00 | 0.00 | 0.00 | 95 | 1013.6 |
| 20260508082235 | 72 | 279 | 0.0 | 0.9 | 0.00 | 0.00 | 0.00 | 94 | 1013.7 |
| 20260508081734 | 72 | 280 | 0.0 | 0.9 | 0.00 | 0.00 | 0.00 | 94 | 1013.6 |
| 20260508081206 | 72 | 280 | 0.0 | 0.9 | 0.00 | 0.00 | 0.00 | 94 | 1013.6 |
| 20260508080704 | 72 | 281 | 0.9 | 1.7 | 0.00 | 0.00 | 0.00 | 94 | 1013.6 |
| 20260508080205 | 72 | 281 | 0.9 | 1.7 | 0.00 | 0.00 | 0.00 | 94 | 1013.6 |
| 20260508075634 | 72 | 279 | 0.9 | 1.7 | 0.00 | 0.00 | 0.00 | 94 | 1013.6 |
| 20260508075105 | 72 | 277 | 0.9 | 1.7 | 0.00 | 0.00 | 0.00 | 94 | 1013.6 |
| 20260508073505 | 72 | 283 | 0.9 | 1.7 | 0.00 | 0.00 | 0.00 | 93 | 1013.8 |
| 20260508071405 | 73 | 301 | 0.9 | 1.7 | 0.00 | 0.00 | 0.00 | 93 | 1013.9 |
| 20260508070905 | 73 | 303 | 0.9 | 1.7 | 0.00 | 0.00 | 0.00 | 93 | 1013.9 |
| 20260508070008 | 73 | 294 | 0.9 | 1.7 | 0.00 | 0.00 | 0.00 | 93 | 1013.9 |
| 20260508065905 | 73 | 294 | 0.9 | 1.7 | 0.00 | 0.00 | 0.00 | 93 | 1013.9 |
| 20260508065334 | 73 | 308 | 0.9 | 1.7 | 0.00 | 0.00 | 0.00 | 93 | 1013.8 |
| 20260508064805 | 73 | 297 | 0.9 | 1.7 | 0.00 | 0.00 | 0.00 | 93 | 1013.9 |
| 20260508064609 | 73 | 287 | 0.9 | 1.7 | 0.00 | 0.00 | 0.00 | 93 | 1013.9 |
| 20260508064304 | 73 | 287 | 0.9 | 1.7 | 0.00 | 0.00 | 0.00 | 93 | 1013.9 |
| 20260508063805 | 72 | 298 | 0.9 | 1.7 | 0.00 | 0.00 | 0.00 | 93 | 1013.9 |
| 20260508063305 | 72 | 289 | 0.9 | 3.5 | 0.00 | 0.00 | 0.00 | 93 | 1014.0 |
| 20260508062735 | 72 | 276 | 0.9 | 1.7 | 0.00 | 0.00 | 0.00 | 93 | 1014.0 |
| 20260508062205 | 72 | 273 | 0.9 | 1.7 | 0.00 | 0.00 | 0.00 | 92 | 1014.2 |
| 20260508061134 | 72 | 278 | 0.9 | 1.7 | 0.00 | 0.00 | 0.00 | 91 | 1014.3 |
| 20260508060634 | 73 | 280 | 0.9 | 1.7 | 0.00 | 0.00 | 0.00 | 91 | 1014.3 |
| 20260508060134 | 73 | 279 | 0.9 | 1.7 | 0.00 | 0.00 | 0.00 | 91 | 1014.3 |
| 20260508055604 | 73 | 277 | 0.9 | 1.7 | 0.00 | 0.00 | 0.00 | 91 | 1014.4 |
| 20260508055105 | 73 | 277 | 0.9 | 1.7 | 0.00 | 0.00 | 0.00 | 90 | 1014.4 |
| 20260508053535 | 73 | 305 | 0.9 | 1.7 | 0.00 | 0.00 | 0.00 | 89 | 1014.6 |
| 20260508052504 | 73 | 291 | 0.9 | 1.7 | 0.00 | 0.00 | 0.00 | 89 | 1014.7 |
| 20260508051504 | 73 | 288 | 0.9 | 1.7 | 0.00 | 0.00 | 0.00 | 88 | 1014.6 |
| 20260508050435 | 74 | 303 | 0.9 | 1.7 | 0.00 | 0.00 | 0.00 | 86 | 1014.7 |
| 20260508045435 | 74 | 305 | 0.9 | 1.7 | 0.00 | 0.00 | 0.00 | 86 | 1014.8 |
| 20260508044406 | 74 | 311 | 0.9 | 1.7 | 0.00 | 0.00 | 0.00 | 85 | 1014.7 |
| 20260508043906 | 74 | 291 | 0.9 | 1.7 | 0.00 | 0.00 | 0.00 | 84 | 1014.7 |
| 20260508043550 | 74 | 278 | 0.9 | 2.6 | 0.00 | 0.00 | 0.00 | 84 | 1014.8 |
| 20260508043501 | 74 | 278 | 0.9 | 2.6 | 0.00 | 0.00 | 0.00 | 84 | 1014.8 |
| 20260508043335 | 74 | 278 | 0.9 | 2.6 | 0.00 | 0.00 | 0.00 | 84 | 1014.8 |
| 20260508043302 | 74 | 277 | 0.9 | 2.6 | 0.00 | 0.00 | 0.00 | 83 | 1014.9 |
| 20260508042805 | 74 | 277 | 0.9 | 2.6 | 0.00 | 0.00 | 0.00 | 83 | 1014.9 |
| 20260508042627 | 74 | 281 | 0.9 | 1.7 | 0.00 | 0.00 | 0.00 | 82 | 1014.8 |
| 20260508042307 | 74 | 281 | 0.9 | 1.7 | 0.00 | 0.00 | 0.00 | 82 | 1014.8 |
| 20260508041924 | 75 | 287 | 0.9 | 1.7 | 0.00 | 0.00 | 0.00 | 81 | 1014.8 |
| 20260508041735 | 75 | 287 | 0.9 | 1.7 | 0.00 | 0.00 | 0.00 | 81 | 1014.8 |
| 20260508040205 | 76 | 294 | 0.9 | 1.7 | 0.00 | 0.00 | 0.00 | 80 | 1014.8 |
| 20260508034245 | 76 | 295 | 0.9 | 1.7 | 0.00 | 0.00 | 0.00 | 79 | 1014.7 |
| 20260508034034 | 76 | 295 | 0.9 | 1.7 | 0.00 | 0.00 | 0.00 | 79 | 1014.7 |
| 20260508031435 | 77 | 309 | 1.7 | 2.6 | 0.00 | 0.00 | 0.00 | 76 | 1014.7 |
| 20260508030934 | 77 | 302 | 1.7 | 2.6 | 0.00 | 0.00 | 0.00 | 75 | 1014.6 |
| 20260508030434 | 78 | 306 | 1.7 | 2.6 | 0.00 | 0.00 | 0.00 | 75 | 1014.4 |
| 20260508030000 | 78 | 309 | 1.7 | 2.6 | 0.00 | 0.00 | 0.00 | 74 | 1014.5 |
| 20260508025905 | 78 | 309 | 1.7 | 2.6 | 0.00 | 0.00 | 0.00 | 74 | 1014.5 |
| 20260508024437 | 78 | 312 | 1.7 | 2.6 | 0.00 | 0.00 | 0.00 | 71 | 1014.5 |
| 20260508024304 | 78 | 312 | 1.7 | 2.6 | 0.00 | 0.00 | 0.00 | 71 | 1014.5 |
| 20260508023833 | 79 | 311 | 1.7 | 2.6 | 0.00 | 0.00 | 0.00 | 70 | 1014.5 |
| 20260508023734 | 79 | 311 | 1.7 | 2.6 | 0.00 | 0.00 | 0.00 | 70 | 1014.5 |
| 20260508022820 | 79 | 312 | 1.7 | 2.6 | 0.00 | 0.00 | 0.00 | 68 | 1014.5 |
| 20260508022635 | 79 | 312 | 1.7 | 2.6 | 0.00 | 0.00 | 0.00 | 68 | 1014.5 |
| 20260508021035 | 80 | 297 | 1.7 | 6.1 | 0.00 | 0.00 | 0.00 | 65 | 1014.3 |
| 20260508020505 | 80 | 295 | 1.7 | 3.5 | 0.00 | 0.00 | 0.00 | 64 | 1014.3 |
| 20260508015625 | 80 | 298 | 1.7 | 2.6 | 0.00 | 0.00 | 0.00 | 63 | 1014.2 |
| 20260508015505 | 80 | 298 | 1.7 | 2.6 | 0.00 | 0.00 | 0.00 | 63 | 1014.2 |
| 20260508014935 | 81 | 298 | 0.9 | 2.6 | 0.00 | 0.00 | 0.00 | 62 | 1014.1 |
| 20260508014435 | 81 | 294 | 1.7 | 2.6 | 0.00 | 0.00 | 0.00 | 61 | 1014.2 |
| 20260508013404 | 81 | 298 | 1.7 | 3.5 | 0.00 | 0.00 | 0.00 | 60 | 1014.1 |
| 20260508012834 | 81 | 295 | 1.7 | 3.5 | 0.00 | 0.00 | 0.00 | 58 | 1014.1 |
| 20260508012335 | 82 | 294 | 1.7 | 3.5 | 0.00 | 0.00 | 0.00 | 57 | 1014.1 |
| 20260508011804 | 82 | 295 | 1.7 | 5.2 | 0.00 | 0.00 | 0.00 | 56 | 1014.0 |
| 20260508011234 | 82 | 296 | 1.7 | 5.2 | 0.00 | 0.00 | 0.00 | 54 | 1014.0 |
| 20260508010704 | 82 | 294 | 1.7 | 2.6 | 0.00 | 0.00 | 0.00 | 52 | 1013.9 |
| 20260508010205 | 83 | 293 | 1.7 | 2.6 | 0.00 | 0.00 | 0.00 | 51 | 1013.8 |
| 20260508005704 | 83 | 297 | 0.9 | 2.6 | 0.00 | 0.00 | 0.00 | 50 | 1013.8 |
| 20260508004634 | 83 | 290 | 1.7 | 2.6 | 0.00 | 0.00 | 0.00 | 47 | 1013.9 |
| 20260508004149 | 84 | 293 | 1.7 | 5.2 | 0.00 | 0.00 | 0.00 | 46 | 1013.9 |
| 20260508004104 | 84 | 293 | 1.7 | 5.2 | 0.00 | 0.00 | 0.00 | 46 | 1013.9 |
| 20260508003605 | 84 | 296 | 1.7 | 5.2 | 0.00 | 0.00 | 0.00 | 45 | 1013.9 |
| 20260508003105 | 84 | 296 | 1.7 | 3.5 | 0.00 | 0.00 | 0.00 | 44 | 1013.9 |
| 20260508002605 | 84 | 292 | 1.7 | 3.5 | 0.00 | 0.00 | 0.00 | 44 | 1013.9 |
| 20260508002104 | 84 | 289 | 1.7 | 3.5 | 0.00 | 0.00 | 0.00 | 42 | 1013.9 |
| 20260508001034 | 85 | 295 | 1.7 | 3.5 | 0.00 | 0.00 | 0.00 | 41 | 1013.8 |
| 20260508000035 | 86 | 297 | 1.7 | 3.5 | 0.00 | 0.00 | 0.00 | 41 | 1013.6 |
| 20260507235505 | 86 | 291 | 1.7 | 4.3 | 0.00 | 0.00 | 0.00 | 40 | 1013.6 |
| 20260507234934 | 87 | 290 | 1.7 | 3.5 | 0.00 | 0.00 | 0.00 | 40 | 1013.6 |
| 20260507234404 | 87 | 297 | 1.7 | 5.2 | 0.00 | 0.00 | 0.00 | 39 | 1013.6 |
| 20260507233905 | 87 | 299 | 1.7 | 6.1 | 0.00 | 0.00 | 0.00 | 38 | 1013.5 |
| 20260507233404 | 88 | 304 | 1.7 | 6.1 | 0.00 | 0.00 | 0.00 | 38 | 1013.6 |
| 20260507232904 | 88 | 307 | 1.7 | 3.5 | 0.00 | 0.00 | 0.00 | 38 | 1013.6 |
| 20260507231305 | 89 | 289 | 2.6 | 7.0 | 0.00 | 0.00 | 0.00 | 36 | 1013.4 |
| 20260507230805 | 89 | 285 | 2.6 | 7.8 | 0.00 | 0.00 | 0.00 | 35 | 1013.4 |
| 20260507230235 | 90 | 284 | 2.6 | 7.0 | 0.00 | 0.00 | 0.00 | 34 | 1013.4 |
| 20260507225735 | 90 | 284 | 2.6 | 5.2 | 0.00 | 0.00 | 0.00 | 36 | 1013.4 |
| 20260507225204 | 90 | 285 | 2.6 | 7.0 | 0.00 | 0.00 | 0.00 | 38 | 1013.4 |
| 20260507224635 | 90 | 272 | 3.5 | 7.8 | 0.00 | 0.00 | 0.00 | 39 | 1013.4 |
| 20260507224134 | 90 | 275 | 3.5 | 7.8 | 0.00 | 0.00 | 0.00 | 40 | 1013.3 |
| 20260507223634 | 90 | 286 | 3.5 | 7.8 | 0.00 | 0.00 | 0.00 | 41 | 1013.2 |
| 20260507223104 | 90 | 283 | 3.5 | 7.8 | 0.00 | 0.00 | 0.00 | 41 | 1013.2 |
| 20260507222534 | 90 | 286 | 1.7 | 7.8 | 0.00 | 0.00 | 0.00 | 42 | 1013.1 |
| 20260507221504 | 91 | 265 | 2.6 | 7.0 | 0.00 | 0.00 | 0.00 | 43 | 1013.0 |
| 20260507220935 | 91 | 270 | 1.7 | 5.2 | 0.00 | 0.00 | 0.00 | 42 | 1013.0 |
| 20260507220434 | 91 | 270 | 1.7 | 6.1 | 0.00 | 0.00 | 0.00 | 42 | 1013.1 |
| 20260507215934 | 91 | 280 | 2.6 | 7.0 | 0.00 | 0.00 | 0.00 | 41 | 1013.1 |
| 20260507215435 | 91 | 294 | 1.7 | 7.0 | 0.00 | 0.00 | 0.00 | 41 | 1013.1 |
| 20260507214904 | 91 | 308 | 1.7 | 7.0 | 0.00 | 0.00 | 0.00 | 40 | 1013.1 |
| 20260507214404 | 91 | 291 | 3.5 | 7.0 | 0.00 | 0.00 | 0.00 | 39 | 1013.1 |
| 20260507213834 | 92 | 280 | 3.5 | 7.0 | 0.00 | 0.00 | 0.00 | 38 | 1013.2 |
| 20260507213334 | 92 | 293 | 1.7 | 6.1 | 0.00 | 0.00 | 0.00 | 37 | 1013.1 |
| 20260507211804 | 92 | 322 | 1.7 | 5.2 | 0.00 | 0.00 | 0.00 | 35 | 1013.2 |
| 20260507211305 | 93 | 316 | 1.7 | 5.2 | 0.00 | 0.00 | 0.00 | 34 | 1013.2 |
| 20260507210735 | 93 | 323 | 1.7 | 4.3 | 0.00 | 0.00 | 0.00 | 34 | 1013.2 |
| 20260507210204 | 93 | 314 | 2.6 | 3.5 | 0.00 | 0.00 | 0.00 | 33 | 1013.3 |
| 20260507205704 | 93 | 313 | 1.7 | 3.5 | 0.00 | 0.00 | 0.00 | 32 | 1013.3 |